[[{"header":{"parameterUnit":"m.s-1","parameterCategory":1,"la1":30.2991,"la2":30.254,"lo1":-89.0895,"lo2":-89.0444,"dy":0.0017,"dx":0.0017,"nx":28,"ny":28,"refTime":"2023-10-19T21:00:00:Z","depth":0,"parameterNumber":2,"parameterNumberName":"U-component_of_WINDS"},"data":[0,0,0,0,0,0,0,0,0,0,0,0,0,0,0,0,0,0,0,0,0,0,0,0,0,0,0,0,0,0,0,0,0,0,0,0,0,0,0,0,0,0,0,0,0,0,0,0,0,0,0,0,0,0,0,0,0,0,-1.7741,-1.7741,0,-1.7707,-1.7707,-1.7706,-1.7651,-1.765,-1.7649,-1.7648,-1.7612,-1.7612,-1.7612,0,0,0,0,0,0,0,0,0,0,0,0,0,-1.7759,-1.7759,-1.7741,-1.7741,-1.774,-1.7707,-1.7707,-1.7706,-1.7651,-1.765,-1.7649,-1.7648,-1.7612,-1.7612,-1.7612,0,0,0,0,0,0,0,0,0,0,0,0,0,-1.7741,-1.7759,-1.7741,-1.7709,-1.7706,-1.7707,-1.7707,-1.7706,-1.7651,-1.765,-1.7648,-1.7647,-1.7612,-1.7612,-1.7612,-1.7642,0,0,-1.7612,-1.7612,0,0,0,0,0,0,0,0,-1.7742,-1.774,-1.7714,-1.7711,-1.7708,-1.7682,-1.77,-1.7685,-1.7652,-1.7672,-1.7648,-1.7646,-1.7636,-1.7634,-1.7631,-1.7641,-1.7639,-1.7612,-1.7612,-1.7612,-1.7612,0,0,0,0,0,0,0,-1.7743,-1.7741,-1.7728,-1.7714,-1.771,-1.7696,-1.7692,-1.7697,-1.7663,-1.767,-1.7666,-1.7663,-1.7634,-1.7631,-1.763,-1.7638,-1.7612,-1.7612,-1.7612,-1.7612,-1.7671,-1.7673,0,0,0,0,0,0,-1.7749,-1.7743,-1.7729,-1.7727,-1.7721,-1.7697,-1.7692,-1.7692,-1.7663,-1.7657,-1.7664,-1.766,-1.7632,-1.763,-1.7628,-1.7661,-1.7612,-1.7612,-1.7612,-1.767,-1.7672,-1.7673,0,0,0,0,0,0,-1.775,-1.7749,-1.773,-1.7734,-1.773,-1.7698,-1.7698,-1.7692,-1.7688,-1.7658,-1.7652,-1.7667,-1.7631,-1.7629,-1.7639,-1.7659,-1.7612,-1.7612,-1.7668,-1.767,-1.7673,-1.7728,0,0,0,0,0,0,-1.7751,-1.7749,-1.776,-1.7734,-1.773,-1.7742,-1.7699,-1.7692,-1.7689,-1.7683,-1.766,-1.7654,-1.7629,-1.764,-1.7639,-1.7658,-1.7612,-1.7666,-1.7669,-1.7672,-1.7724,-1.7732,-1.7739,0,0,0,0,0,-1.7752,-1.7777,-1.7761,-1.7759,-1.7743,-1.7743,-1.774,-1.7712,-1.7691,-1.7701,-1.7682,-1.7655,-1.7658,-1.7641,-1.764,-1.766,-1.7664,-1.7668,-1.7672,-1.7721,-1.773,-1.7738,0,0,0,0,0,0,-1.7805,-1.7773,-1.7755,-1.7772,-1.7761,-1.7733,-1.7746,-1.7723,-1.7717,-1.7712,-1.7677,-1.7672,-1.7687,-1.7675,-1.7657,-1.7688,-1.7657,-1.7661,-1.7695,-1.7704,-1.7711,-1.7712,-1.7612,0,0,0,0,0,-1.7819,-1.7821,-1.7793,-1.7811,-1.7806,-1.7778,-1.7776,-1.7756,-1.7742,-1.7737,-1.7718,-1.7706,-1.7704,-1.7704,-1.77,-1.7723,-1.7717,-1.7736,-1.7744,-1.775,-1.7752,-1.7764,-1.7772,-1.7685,-1.7685,-1.7685,0,0,-1.7847,-1.783,-1.7833,-1.7821,-1.781,-1.7813,-1.7774,-1.7778,-1.778,-1.7737,-1.7746,-1.7733,-1.7717,-1.7734,-1.7741,-1.7724,-1.7776,-1.7754,-1.7759,-1.7759,-1.7768,-1.7776,-1.7784,-1.7688,-1.7687,-1.7687,0,0,-1.79,-1.7887,-1.7901,-1.7891,-1.7875,-1.7856,-1.7859,-1.7836,-1.7825,-1.7834,-1.7802,-1.7805,-1.7802,-1.7792,-1.7787,-1.7839,-1.7813,-1.7839,-1.7876,-1.7887,-1.7894,-1.79,-1.7917,-1.7924,-1.7843,-1.7843,-1.7843,0,-1.7936,-1.794,-1.7911,-1.7918,-1.7914,-1.7877,-1.789,-1.7882,-1.7865,-1.7863,-1.7846,-1.7843,-1.783,-1.7844,-1.7857,-1.7854,-1.7857,-1.784,-1.7895,-1.7901,-1.7906,-1.7922,-1.7929,-1.7846,-1.7846,-1.7845,-1.7845,0,-1.7986,-1.7989,-1.8002,-1.7987,-1.7985,-1.7996,-1.7969,-1.797,-1.795,-1.7934,-1.7943,-1.7927,-1.792,-1.7922,-1.7903,-1.7934,-1.7924,-1.7902,-1.787,-1.7918,-1.7932,-1.7939,-1.785,-1.7849,-1.7848,-1.7847,0,0,-1.8068,-1.8039,-1.8044,-1.8037,-1.8018,-1.802,-1.8029,-1.8023,-1.8024,-1.8015,-1.8022,-1.8022,-1.8002,-1.7996,-1.7976,-1.7986,-1.8028,-1.7962,-1.7961,-1.7974,-1.806,-1.8076,-1.8083,-1.8012,-1.8013,-1.8014,-1.8061,0,-1.8115,-1.8129,-1.8104,-1.8124,-1.8126,-1.8092,-1.81,-1.809,-1.8075,-1.8075,-1.8059,-1.8059,-1.8033,-1.8029,-1.8038,-1.8021,-1.8044,-1.8017,-1.8017,-1.8017,-1.8019,-1.8091,-1.8107,-1.8152,-1.8067,-1.8068,-1.8068,0,-1.8171,-1.8165,-1.8185,-1.8165,-1.8166,-1.8173,-1.8166,-1.8167,-1.8155,-1.8143,-1.8138,-1.8115,-1.8123,-1.8095,-1.8105,-1.8087,-1.8086,-1.8078,-1.8079,-1.8076,-1.8044,-1.8088,-1.8166,-1.8172,-1.8077,-1.8077,-1.8076,0,-1.8227,-1.8224,-1.8236,-1.8232,-1.8209,-1.8216,-1.8207,-1.8193,-1.8191,-1.8185,-1.8184,-1.8179,-1.8176,-1.8173,-1.8149,-1.8131,-1.8163,-1.8132,-1.8153,-1.8153,-1.8159,-1.8158,-1.8235,-1.8162,-1.8162,-1.8162,-1.8162,0,-1.8281,-1.8294,-1.8261,-1.8268,-1.8282,-1.8255,-1.8269,-1.8257,-1.8246,-1.825,-1.8221,-1.8226,-1.8195,-1.8197,-1.8179,-1.819,-1.8189,-1.818,-1.8174,-1.8181,-1.8182,-1.8178,-1.8173,-1.8164,-1.8163,-1.8163,-1.8163,0,-1.8344,-1.8323,-1.8333,-1.8312,-1.8307,-1.8318,-1.83,-1.8306,-1.8291,-1.8296,-1.8296,-1.8272,-1.8272,-1.8249,-1.8245,-1.8233,-1.8251,-1.8241,-1.8255,-1.8251,-1.8273,-1.827,-1.8348,-1.8356,-1.828,-1.8281,-1.8281,0,-1.8379,-1.8388,-1.8368,-1.8369,-1.8362,-1.8364,-1.8362,-1.8337,-1.8336,-1.8324,-1.8331,-1.833,-1.8326,-1.8329,-1.8311,-1.8307,-1.8296,-1.8324,-1.8295,-1.8302,-1.8294,-1.8293,-1.8294,-1.8329,-1.833,-1.833,-1.8331,0,-1.8442,-1.8431,-1.843,-1.8425,-1.8424,-1.8419,-1.8413,-1.8415,-1.8387,-1.8389,-1.8389,-1.8387,-1.8383,-1.8381,-1.8375,-1.8366,-1.8344,-1.8341,-1.8345,-1.8351,-1.8358,-1.8353,-1.8269,-1.8338,-1.8338,-1.8337,-1.8337,-1.8336,-1.849,-1.8497,-1.8485,-1.8484,-1.8477,-1.8472,-1.8477,-1.8463,-1.8462,-1.8457,-1.8443,-1.8446,-1.8435,-1.8424,-1.8418,-1.842,-1.8406,-1.8412,-1.8413,-1.8415,-1.8418,-1.836,-1.8419,-1.8418,-1.8418,-1.8418,-1.8418,0,-1.855,-1.8541,-1.8542,-1.8534,-1.8534,-1.8515,-1.8507,-1.8508,-1.8511,-1.8503,-1.8501,-1.8502,-1.8501,-1.8484,-1.8481,-1.8486,-1.8476,-1.8486,-1.8484,-1.8482,-1.8432,-1.8427,-1.8494,-1.8494,-1.8494,-1.8494,-1.8494,-1.8494,-1.8581,-1.8592,-1.8581,-1.8588,-1.8579,-1.8581,-1.8578,-1.8574,-1.8567,-1.8569,-1.8569,-1.8558,-1.8546,-1.8543,-1.8541,-1.8536,-1.8536,-1.8549,-1.8541,-1.8493,-1.8486,-1.8479,-1.8474,-1.855,-1.855,-1.8591,-1.8591,-1.8591]},{"header":{"parameterUnit":"m.s-1","parameterCategory":1,"la1":30.2991,"la2":30.254,"lo1":-89.0895,"lo2":-89.0444,"dy":0.0017,"dx":0.0017,"nx":28,"ny":28,"refTime":"2023-10-19T21:00:00:Z","depth":0,"parameterNumber":3,"parameterNumberName":"V-component_of_WINDS"},"data":[0,0,0,0,0,0,0,0,0,0,0,0,0,0,0,0,0,0,0,0,0,0,0,0,0,0,0,0,0,0,0,0,0,0,0,0,0,0,0,0,0,0,0,0,0,0,0,0,0,0,0,0,0,0,0,0,0,0,3.6895,3.6894,0,3.6839,3.6838,3.6838,3.6839,3.684,3.6841,3.6841,3.6777,3.6774,3.6772,0,0,0,0,0,0,0,0,0,0,0,0,0,3.6997,3.6995,3.6895,3.6894,3.6894,3.6839,3.6838,3.6837,3.6839,3.684,3.6841,3.6842,3.6778,3.6775,3.6772,0,0,0,0,0,0,0,0,0,0,0,0,0,3.6948,3.6994,3.6895,3.6888,3.6887,3.6839,3.6838,3.6837,3.6839,3.684,3.6841,3.6842,3.6779,3.6775,3.6771,3.6725,0,0,3.676,3.6758,0,0,0,0,0,0,0,0,3.695,3.6944,3.689,3.6888,3.6887,3.6847,3.685,3.6799,3.6839,3.6857,3.6842,3.6843,3.6799,3.6794,3.678,3.6722,3.6719,3.676,3.6757,3.6756,3.6755,0,0,0,0,0,0,0,3.6954,3.6946,3.6873,3.6889,3.6887,3.6885,3.688,3.6841,3.6822,3.6855,3.6855,3.6849,3.6798,3.6784,3.6779,3.6718,3.676,3.6756,3.6754,3.6753,3.6618,3.6616,0,0,0,0,0,0,3.696,3.6949,3.6874,3.6871,3.6923,3.6883,3.6876,3.6859,3.6822,3.6818,3.6848,3.6849,3.6789,3.6783,3.6776,3.6719,3.6756,3.6752,3.675,3.6619,3.6617,3.6616,0,0,0,0,0,0,3.6962,3.6953,3.6877,3.691,3.69,3.688,3.686,3.6857,3.6843,3.6817,3.6813,3.6837,3.679,3.6782,3.6738,3.6717,3.6751,3.6747,3.6621,3.6618,3.6617,3.6604,0,0,0,0,0,0,3.6965,3.6954,3.6938,3.691,3.6899,3.6841,3.6859,3.6855,3.6837,3.6838,3.6805,3.6801,3.679,3.6743,3.6734,3.6712,3.6745,3.6622,3.662,3.6617,3.6606,3.6602,3.6598,0,0,0,0,0,3.6969,3.6935,3.6937,3.6928,3.6878,3.684,3.6833,3.6824,3.6836,3.6818,3.6801,3.6802,3.6721,3.6739,3.6729,3.6705,3.6624,3.662,3.6617,3.6608,3.6603,3.6598,0,0,0,0,0,0,3.6958,3.6931,3.6933,3.689,3.6868,3.6841,3.6818,3.6818,3.679,3.6792,3.678,3.6772,3.6728,3.6712,3.6733,3.6658,3.6673,3.6668,3.667,3.6665,3.6661,3.6665,3.6741,0,0,0,0,0,3.6951,3.6925,3.6902,3.6866,3.6855,3.6838,3.6821,3.6816,3.6792,3.6781,3.6762,3.6736,3.6704,3.6684,3.6653,3.6604,3.6596,3.6583,3.6579,3.6576,3.6571,3.6543,3.6537,3.6606,3.6606,3.6606,0,0,3.6936,3.6918,3.6902,3.6863,3.6846,3.6816,3.683,3.6799,3.6777,3.6776,3.6734,3.6719,3.6689,3.6642,3.6621,3.6627,3.655,3.6572,3.657,3.6566,3.6539,3.6533,3.6527,3.6603,3.6604,3.6604,0,0,3.6893,3.6878,3.6846,3.6828,3.6802,3.6791,3.6784,3.6757,3.6747,3.6706,3.6704,3.6676,3.6623,3.6602,3.6584,3.6533,3.6532,3.6523,3.6502,3.6475,3.6469,3.6464,3.6445,3.6439,3.6519,3.6519,3.6519,0,3.6877,3.6836,3.6829,3.6798,3.678,3.6781,3.6748,3.673,3.6694,3.6681,3.669,3.6623,3.6603,3.6551,3.6539,3.6525,3.6514,3.6527,3.6471,3.6466,3.6461,3.6443,3.6436,3.6518,3.6518,3.6518,3.6518,0,3.6816,3.6787,3.6764,3.6733,3.6712,3.668,3.6667,3.6647,3.6643,3.6631,3.6588,3.6564,3.6529,3.6516,3.6511,3.6463,3.6468,3.6474,3.6489,3.6454,3.6436,3.6429,3.6517,3.6517,3.6517,3.6517,0,0,3.6765,3.6731,3.6722,3.6708,3.6679,3.6655,3.6622,3.659,3.6573,3.6548,3.6518,3.6473,3.6479,3.6459,3.6451,3.6428,3.6388,3.6436,3.6435,3.6428,3.6333,3.6328,3.632,3.6388,3.6387,3.6386,3.6335,0,3.6719,3.6663,3.6656,3.6606,3.6578,3.6578,3.6549,3.6527,3.6515,3.6488,3.6473,3.6441,3.6451,3.6439,3.6416,3.6398,3.6369,3.6402,3.6359,3.6357,3.6366,3.6311,3.6306,3.6259,3.6328,3.6327,3.6326,0,3.6657,3.6633,3.6581,3.6556,3.6544,3.6519,3.6488,3.6463,3.6437,3.643,3.6408,3.6404,3.6367,3.6385,3.6333,3.6356,3.6338,3.6326,3.6324,3.6319,3.6339,3.6304,3.6244,3.6237,3.6315,3.6316,3.6317,0,3.6625,3.6579,3.6541,3.6529,3.6499,3.6481,3.6467,3.6443,3.6424,3.6396,3.6384,3.6352,3.6334,3.6308,3.6295,3.6309,3.6244,3.626,3.6235,3.6235,3.622,3.6221,3.6156,3.621,3.621,3.621,3.621,0,3.6573,3.6541,3.6526,3.6503,3.6466,3.6458,3.6421,3.6407,3.6386,3.6358,3.6356,3.6329,3.6314,3.6285,3.6273,3.6232,3.6224,3.6215,3.6213,3.6215,3.6216,3.6203,3.6205,3.6208,3.6209,3.6209,3.6209,0,3.653,3.652,3.6479,3.6454,3.6447,3.6421,3.6399,3.6375,3.6363,3.6329,3.632,3.63,3.6266,3.625,3.6207,3.6199,3.6152,3.6152,3.6161,3.616,3.6135,3.6138,3.6059,3.6047,3.6109,3.6109,3.6108,0,3.6498,3.6474,3.6447,3.643,3.6416,3.6388,3.637,3.636,3.634,3.6309,3.6288,3.6254,3.6227,3.6171,3.6152,3.6118,3.6117,3.6091,3.6111,3.6115,3.6115,3.6117,3.6114,3.6087,3.6087,3.6086,3.6086,0,3.6442,3.6438,3.6413,3.6385,3.6364,3.6341,3.6318,3.6303,3.6289,3.6267,3.6233,3.6212,3.6169,3.6134,3.61,3.6083,3.6081,3.608,3.6072,3.6074,3.6081,3.6076,3.6151,3.6081,3.6082,3.6082,3.6082,3.6083,3.6403,3.6381,3.636,3.6331,3.6313,3.6292,3.6269,3.6255,3.6228,3.6194,3.6189,3.6152,3.6125,3.608,3.6061,3.6031,3.6037,3.6026,3.6023,3.602,3.6018,3.6086,3.6025,3.6025,3.6025,3.6025,3.6025,0,3.6347,3.6333,3.6307,3.6277,3.6253,3.6257,3.6232,3.6212,3.618,3.6157,3.6131,3.6091,3.6058,3.6036,3.6002,3.5981,3.598,3.5973,3.5974,3.5969,3.6015,3.6025,3.5975,3.5975,3.5975,3.5975,3.5975,3.5975,3.6315,3.6278,3.6271,3.6225,3.621,3.6177,3.6162,3.6142,3.6124,3.608,3.6054,3.6041,3.6017,3.5981,3.595,3.5944,3.5931,3.5924,3.5918,3.5961,3.5966,3.5971,3.5981,3.5921,3.5921,3.5875,3.5874,3.5874]}]]